{"data":{"norad_id":59763,"intl_designator":"2024-091L","name":"STARLINK-11104 [DTC]","alt_names":[],"object_type":"PAYLOAD","status":"ACTIVE","operator":null,"country":"US","launch_date":"2024-05-14","launch_site_code":"AFWTR","launch_vehicle":null,"mission":null,"orbit_class":"UNKNOWN","rcs_meters":null,"size_class":null,"mass_kg":null,"dimensions":null,"purposes":["comms"],"wikipedia_slug":null,"has_3d_model":false,"image_url":null,"decayed_at":null,"tle_current":{"epoch":"2026-09-21T10:54:23.201280Z","epoch_age_seconds":88901,"freshness":"FRESH","line1":"1 59763U 24091L   26264.45443520  .00000509  00000+0  90640-5 0  9990","line2":"2 59763  53.1599 320.9760 0001476  97.7941 262.3245 15.69703947136269","mean_motion":15.69703947,"eccentricity":0.0001476,"inclination_deg":53.1599,"raan_deg":320.976,"arg_perigee_deg":97.7941,"mean_anomaly_deg":262.3245,"bstar":9.064e-6,"rev_number":13626,"period_min":91.737043966291,"perigee_km":358.74956059827,"apogee_km":360.73858309068,"semimajor_km":6737.8810718445,"source":"CELESTRAK","updated_at":"2026-09-22T09:00:49.069107Z"}}}